GW3459 Weather Reports


time (UTC)temp
C
wind
direction
speed
KPH
gust
KPH
rain 1hr
cm
rain 24hr
cm
rain mn
cm
humidity
%
barometer
mb
20260508034418 6 343 0.0 0.0 0.00 0.00 0.00 76 1013.2
20260508033914 6 343 0.0 0.0 0.00 0.00 0.00 75 1013.0
20260508033412 6 343 0.0 0.0 0.00 0.00 0.00 75 1013.3
20260508032909 6 343 0.0 0.0 0.00 0.00 0.00 74 1013.0
20260508032407 6 343 0.0 0.0 0.00 0.00 0.00 73 1013.2
20260508031903 6 343 0.0 0.0 0.00 0.00 0.00 72 1013.2
20260508031401 6 343 0.0 0.0 0.00 0.00 0.00 72 1013.3
20260508030856 6 343 0.0 0.0 0.00 0.00 0.00 71 1013.5
20260508030353 6 343 0.0 0.0 0.00 0.00 0.00 70 1013.4
20260508025850 7 343 0.0 0.0 0.00 0.00 0.00 70 1013.4
20260508025341 7 343 0.0 0.0 0.00 0.00 0.00 69 1013.3
20260508024838 7 343 0.0 0.0 0.00 0.00 0.00 68 1013.2
20260508024335 7 343 0.0 0.0 0.00 0.00 0.00 68 1013.3
20260508023832 7 343 0.0 0.0 0.00 0.00 0.00 68 1013.5
20260508023328 7 343 0.0 0.0 0.00 0.00 0.00 68 1013.2
20260508022825 7 343 0.0 0.0 0.00 0.00 0.00 68 1013.4
20260508022321 7 343 0.0 0.0 0.00 0.00 0.00 66 1013.2
20260508021818 7 343 0.0 0.0 0.00 0.00 0.00 64 1013.0
20260508021314 7 343 0.0 0.0 0.00 0.00 0.00 63 1013.3
20260508020810 7 343 0.0 0.0 0.00 0.00 0.00 62 1013.0
20260508020308 7 343 0.0 0.0 0.00 0.00 0.00 61 1013.0
20260508015805 7 343 0.0 0.0 0.00 0.00 0.00 61 1013.3
20260508015305 7 343 0.0 0.0 0.00 0.00 0.00 62 1013.0
20260508014759 7 343 0.0 0.0 0.00 0.00 0.00 61 1013.2
20260508014256 7 343 0.0 0.0 0.00 0.00 0.00 62 1013.0
20260508013751 8 343 0.0 0.0 0.00 0.00 0.00 62 1013.3
20260508013248 8 343 0.0 0.0 0.00 0.00 0.00 64 1013.0
20260508012746 8 343 0.0 0.0 0.00 0.00 0.00 63 1012.8
20260508012242 8 343 0.0 0.0 0.00 0.00 0.00 64 1012.8
20260508011741 8 343 0.0 0.0 0.00 0.00 0.00 63 1012.8
20260508011238 8 343 0.0 0.0 0.00 0.00 0.00 62 1012.9
20260508010735 8 343 0.0 0.0 0.00 0.00 0.00 61 1012.8
20260508010233 9 343 0.0 0.0 0.00 0.00 0.00 61 1012.6
20260508005729 9 343 0.0 0.0 0.00 0.00 0.00 60 1012.5
20260508005226 9 344 0.0 0.0 0.00 0.00 0.00 60 1012.6
20260508004721 10 344 0.0 1.6 0.00 0.00 0.00 59 1012.4
20260508004218 10 346 0.0 0.0 0.00 0.00 0.00 58 1012.4
20260508003715 10 338 1.6 1.6 0.00 0.00 0.00 59 1012.6
20260508003212 10 338 1.6 1.6 0.00 0.00 0.00 58 1012.3
20260508002709 10 345 1.6 1.6 0.00 0.00 0.00 58 1012.3
20260508002207 10 355 3.2 3.2 0.00 0.00 0.00 59 1012.2
20260508001702 10 347 1.6 1.6 0.00 0.00 0.00 58 1012.0
20260508001158 10 332 1.6 1.6 0.00 0.00 0.00 58 1012.3
20260508000654 11 342 1.6 1.6 0.00 0.00 0.00 57 1012.0
20260508000151 11 340 1.6 1.6 0.00 0.00 0.00 56 1011.9
20260507235648 11 338 3.2 3.2 0.00 0.00 0.00 56 1011.9
20260507235145 11 314 3.2 3.2 0.00 0.00 0.00 55 1011.8
20260507234642 11 328 1.6 3.2 0.00 0.00 0.00 55 1011.9
20260507234138 11 8 3.2 3.2 0.00 0.00 0.00 54 1012.0
20260507233635 12 328 3.2 3.2 0.00 0.00 0.00 52 1011.8
20260507233134 12 326 6.4 8.0 0.00 0.00 0.00 52 1011.8
20260507232629 12 295 4.8 4.8 0.00 0.00 0.00 51 1011.7
20260507232127 12 274 3.2 3.2 0.00 0.00 0.00 52 1011.7
20260507231623 12 330 1.6 4.8 0.00 0.00 0.00 51 1011.7
20260507231121 12 336 4.8 4.8 0.00 0.00 0.00 50 1011.7
20260507230617 13 339 3.2 4.8 0.00 0.00 0.00 45 1011.7
20260507230114 13 286 9.7 11.3 0.00 0.00 0.00 43 1011.6
20260507225609 13 277 4.8 8.0 0.00 0.00 0.00 44 1011.7
20260507225106 13 147 3.2 3.2 0.00 0.00 0.00 44 1011.4
20260507224601 13 358 11.3 14.5 0.00 0.00 0.00 43 1011.5
20260507224058 13 336 6.4 11.3 0.00 0.00 0.00 45 1011.6
20260507223554 13 313 3.2 4.8 0.00 0.00 0.00 45 1011.6
20260507223051 13 334 3.2 4.8 0.00 0.00 0.00 44 1011.5
20260507222548 13 279 8.0 9.7 0.00 0.00 0.00 43 1011.4
20260507222045 13 340 4.8 4.8 0.00 0.00 0.00 43 1011.3
20260507221541 13 287 6.4 9.7 0.00 0.00 0.00 41 1011.1
20260507221038 13 37 3.2 4.8 0.00 0.00 0.00 41 1011.1
20260507220535 14 339 6.4 9.7 0.00 0.00 0.00 40 1011.1
20260507220033 13 313 4.8 4.8 0.00 0.00 0.00 42 1011.0
20260507215529 13 327 4.8 11.3 0.00 0.00 0.00 42 1011.0
20260507215027 13 322 6.4 9.7 0.00 0.00 0.00 41 1010.7
20260507214524 13 318 3.2 3.2 0.00 0.00 0.00 42 1010.9
20260507214020 13 185 4.8 4.8 0.00 0.00 0.00 41 1010.7
20260507213516 13 280 3.2 3.2 0.00 0.00 0.00 41 1010.8
20260507213013 15 256 8.0 11.3 0.00 0.00 0.00 37 1010.5
20260507212508 15 339 8.0 9.7 0.00 0.00 0.00 39 1010.4
20260507212006 14 4 9.7 16.1 0.00 0.00 0.00 39 1010.5
20260507211503 14 349 3.2 4.8 0.00 0.00 0.00 41 1010.5
20260507210959 15 274 4.8 8.0 0.00 0.00 0.00 38 1010.7
20260507210456 15 311 3.2 3.2 0.00 0.00 0.00 40 1010.3
20260507205952 15 298 4.8 4.8 0.00 0.00 0.00 43 1010.4
20260507205444 13 2 3.2 3.2 0.00 0.00 0.00 45 1010.1
20260507204940 13 292 3.2 3.2 0.00 0.00 0.00 44 1010.4
20260507204436 14 275 6.4 8.0 0.00 0.00 0.00 43 1010.3
20260507203934 14 261 6.4 8.0 0.00 0.00 0.00 43 1010.1
20260507203432 13 315 3.2 4.8 0.00 0.00 0.00 44 1010.1
20260507202928 13 343 1.6 1.6 0.00 0.00 0.00 42 1010.5
20260507202425 15 250 6.4 8.0 0.00 0.00 0.00 42 1010.4
20260507201920 15 315 4.8 4.8 0.00 0.00 0.00 42 1010.6
20260507201415 14 270 3.2 3.2 0.00 0.00 0.00 41 1010.4
20260507200913 15 298 6.4 8.0 0.00 0.00 0.00 40 1010.4
20260507200408 14 329 4.8 8.0 0.00 0.00 0.00 41 1010.4
20260507195904 13 272 1.6 3.2 0.00 0.00 0.00 44 1010.6
20260507195402 13 342 6.4 8.0 0.00 0.00 0.00 42 1010.8
20260507194859 15 340 3.2 8.0 0.00 0.00 0.00 40 1010.8
20260507194355 13 144 6.4 9.7 0.00 0.00 0.00 41 1010.9
20260507193851 15 278 6.4 9.7 0.00 0.00 0.00 41 1010.6
20260507193349 14 298 3.2 3.2 0.00 0.00 0.00 39 1010.8
20260507192845 14 343 1.6 3.2 0.00 0.00 0.00 41 1010.9
20260507192341 14 294 8.0 11.3 0.00 0.00 0.00 40 1010.8
20260507191838 15 342 4.8 4.8 0.00 0.00 0.00 41 1010.8
20260507191334 14 283 8.0 9.7 0.00 0.00 0.00 40 1010.8
20260507190831 15 250 4.8 4.8 0.00 0.00 0.00 40 1011.2
20260507190330 14 198 1.6 3.2 0.00 0.00 0.00 39 1011.0
20260507185828 15 244 8.0 11.3 0.00 0.00 0.00 38 1010.7
20260507185325 13 324 1.6 1.6 0.00 0.00 0.00 42 1010.6
20260507184822 13 300 4.8 4.8 0.00 0.00 0.00 40 1010.9
20260507184320 14 336 3.2 3.2 0.00 0.00 0.00 42 1010.8
20260507183817 15 302 4.8 8.0 0.00 0.00 0.00 42 1011.1
20260507183314 14 295 4.8 8.0 0.00 0.00 0.00 44 1010.9
20260507182811 14 312 4.8 8.0 0.00 0.00 0.00 39 1010.9
20260507182307 15 264 4.8 8.0 0.00 0.00 0.00 41 1010.9
20260507181803 15 255 4.8 4.8 0.00 0.00 0.00 41 1011.1
20260507181259 15 299 3.2 3.2 0.00 0.00 0.00 41 1010.9
20260507180756 15 203 6.4 8.0 0.00 0.00 0.00 38 1011.0
20260507180253 14 343 3.2 4.8 0.00 0.00 0.00 42 1011.1
20260507175748 14 278 3.2 3.2 0.00 0.00 0.00 41 1011.0
20260507175246 13 265 3.2 3.2 0.00 0.00 0.00 42 1011.2
20260507174743 13 312 8.0 11.3 0.00 0.00 0.00 41 1011.1
20260507174241 14 264 3.2 4.8 0.00 0.00 0.00 41 1011.1
20260507173738 15 317 4.8 8.0 0.00 0.00 0.00 42 1011.3
20260507173235 14 216 1.6 1.6 0.00 0.00 0.00 42 1011.2
20260507172731 15 252 4.8 4.8 0.00 0.00 0.00 43 1011.2
20260507172229 13 330 1.6 1.6 0.00 0.00 0.00 43 1011.4
20260507171728 13 311 4.8 4.8 0.00 0.00 0.00 44 1011.5
20260507171226 13 353 1.6 3.2 0.00 0.00 0.00 42 1011.5
20260507170723 13 299 3.2 3.2 0.00 0.00 0.00 43 1011.5
20260507170220 13 298 4.8 8.0 0.00 0.00 0.00 43 1011.6
20260507165715 13 320 4.8 8.0 0.00 0.00 0.00 47 1011.7
20260507165212 13 261 4.8 4.8 0.00 0.00 0.00 43 1011.5
20260507164708 13 320 3.2 3.2 0.00 0.00 0.00 44 1011.7
20260507164206 13 111 6.4 9.7 0.00 0.00 0.00 46 1011.4
20260507163702 13 46 1.6 1.6 0.00 0.00 0.00 46 1011.6
20260507163200 13 344 4.8 4.8 0.00 0.00 0.00 48 1011.7
20260507162655 13 291 4.8 4.8 0.00 0.00 0.00 48 1011.8
20260507162152 12 310 3.2 3.2 0.00 0.00 0.00 48 1011.7
20260507161648 13 270 3.2 3.2 0.00 0.00 0.00 48 1011.6
20260507161145 13 261 3.2 3.2 0.00 0.00 0.00 47 1011.6
20260507160641 13 330 6.4 8.0 0.00 0.00 0.00 47 1011.6
20260507160138 13 220 4.8 8.0 0.00 0.00 0.00 47 1011.8
20260507155634 13 276 4.8 4.8 0.00 0.00 0.00 49 1011.9
20260507155130 13 319 3.2 3.2 0.00 0.00 0.00 49 1011.8
20260507154627 12 148 3.2 4.8 0.00 0.00 0.00 45 1012.0
20260507154124 12 162 4.8 8.0 0.00 0.00 0.00 46 1011.9
20260507153615 12 105 3.2 4.8 0.00 0.00 0.00 48 1012.0
20260507153111 12 308 4.8 4.8 0.00 0.00 0.00 49 1012.0
20260507152607 12 338 1.6 1.6 0.00 0.00 0.00 47 1012.1
20260507152058 12 266 4.8 4.8 0.00 0.00 0.00 50 1012.0
20260507151554 12 256 3.2 3.2 0.00 0.00 0.00 49 1012.2
20260507151052 12 206 4.8 4.8 0.00 0.00 0.00 49 1012.2
20260507150549 12 121 3.2 4.8 0.00 0.00 0.00 51 1012.1
20260507150045 12 333 4.8 4.8 0.00 0.00 0.00 51 1012.0
20260507145540 11 267 3.2 4.8 0.00 0.00 0.00 52 1012.3
20260507145038 11 341 1.6 3.2 0.00 0.00 0.00 55 1012.3
20260507144534 12 154 8.0 9.7 0.00 0.00 0.00 54 1012.3
20260507144032 11 322 1.6 3.2 0.00 0.00 0.00 56 1012.5
20260507143529 11 142 6.4 9.7 0.00 0.00 0.00 55 1012.2
20260507143027 11 358 1.6 1.6 0.00 0.00 0.00 58 1012.4
20260507142522 11 335 0.0 0.0 0.00 0.00 0.00 60 1012.2
20260507142019 11 272 1.6 1.6 0.00 0.00 0.00 58 1012.5
20260507141515 11 182 4.8 4.8 0.00 0.00 0.00 56 1012.8
20260507141012 11 68 3.2 4.8 0.00 0.00 0.00 58 1012.6
20260507140509 11 314 4.8 8.0 0.00 0.00 0.00 61 1012.7
20260507140007 11 352 1.6 3.2 0.00 0.00 0.00 60 1012.6
20260507135503 11 276 4.8 8.0 0.00 0.00 0.00 62 1012.9
20260507135000 10 323 4.8 4.8 0.00 0.00 0.00 63 1012.8
20260507134456 10 290 3.2 3.2 0.00 0.00 0.00 63 1012.9
20260507133952 10 257 4.8 8.0 0.00 0.00 0.00 64 1013.0
20260507133448 10 227 4.8 8.0 0.00 0.00 0.00 65 1012.9
20260507132947 10 323 3.2 3.2 0.00 0.00 0.00 66 1012.9
20260507132443 10 271 4.8 4.8 0.00 0.00 0.00 65 1013.0
20260507131939 10 298 1.6 1.6 0.00 0.00 0.00 66 1013.2
20260507131437 10 306 1.6 3.2 0.00 0.00 0.00 67 1013.0
20260507130934 10 298 3.2 4.8 0.00 0.00 0.00 67 1013.0
20260507130431 9 190 8.0 9.7 0.00 0.00 0.00 66 1012.8
20260507125929 9 214 4.8 4.8 0.00 0.00 0.00 67 1012.9
20260507125427 9 242 3.2 4.8 0.00 0.00 0.00 68 1012.9
20260507124924 8 209 4.8 8.0 0.00 0.00 0.00 68 1013.2
20260507124420 8 357 1.6 1.6 0.00 0.00 0.00 70 1013.0
20260507123919 8 87 3.2 3.2 0.00 0.00 0.00 69 1013.0
20260507123415 8 328 1.6 1.6 0.00 0.00 0.00 72 1013.0
20260507122912 8 141 4.8 4.8 0.00 0.00 0.00 72 1012.9
20260507122407 7 350 1.6 1.6 0.00 0.00 0.00 74 1013.0
20260507121904 7 303 1.6 3.2 0.00 0.00 0.00 78 1013.0
20260507121359 6 336 1.6 1.6 0.00 0.00 0.00 83 1013.0
20260507120856 6 28 0.0 0.0 0.00 0.00 0.00 86 1013.2
20260507120352 5 29 0.0 1.6 0.00 0.00 0.00 88 1012.9
20260507115849 5 15 0.0 0.0 0.00 0.00 0.00 90 1012.9
20260507115344 5 351 1.6 1.6 0.00 0.00 0.00 92 1013.0
20260507114840 4 355 0.0 1.6 0.00 0.00 0.00 93 1013.2
20260507114338 4 2 0.0 0.0 0.00 0.00 0.00 93 1013.2
20260507113835 4 2 0.0 0.0 0.00 0.00 0.00 93 1013.2
20260507113332 4 3 0.0 1.6 0.00 0.00 0.00 94 1013.2
20260507112829 4 26 0.0 0.0 0.00 0.00 0.00 94 1012.9
20260507112326 3 13 0.0 0.0 0.00 0.00 0.00 95 1012.9
20260507111824 3 13 0.0 0.0 0.00 0.00 0.00 95 1013.0
20260507111320 3 13 0.0 0.0 0.00 0.00 0.00 95 1012.9
20260507110817 3 12 0.0 1.6 0.00 0.00 0.00 96 1012.9
20260507110313 3 356 0.0 0.0 0.00 0.00 0.00 96 1012.9
20260507105810 2 349 0.0 0.0 0.00 0.00 0.00 96 1012.8
20260507105307 2 351 0.0 0.0 0.00 0.00 0.00 96 1013.0
20260507104804 2 358 0.0 1.6 0.00 0.00 0.00 96 1012.9
20260507104300 2 354 0.0 0.0 0.00 0.00 0.00 96 1012.8
20260507103756 2 354 0.0 0.0 0.00 0.00 0.00 95 1012.7
20260507103252 2 355 0.0 0.0 0.00 0.00 0.00 95 1012.9
20260507102748 2 356 0.0 0.0 0.00 0.00 0.00 95 1012.8
20260507102240 2 0 0.0 0.0 0.00 0.00 0.00 95 1012.9
20260507101736 2 0 0.0 0.0 0.00 0.00 0.00 95 1012.7
20260507101231 2 4 0.0 0.0 0.00 0.00 0.00 95 1012.7
20260507100728 2 3 0.0 0.0 0.00 0.00 0.00 95 1012.7
20260507100227 2 346 0.0 0.0 0.00 0.00 0.00 95 1012.6
20260507095724 2 357 0.0 0.0 0.00 0.00 0.00 95 1012.7
20260507095220 2 7 0.0 0.0 0.00 0.00 0.00 95 1012.5
20260507094717 2 7 0.0 0.0 0.00 0.00 0.00 95 1012.5
20260507094209 2 7 0.0 0.0 0.00 0.00 0.00 94 1012.8
20260507093705 2 7 0.0 0.0 0.00 0.00 0.00 94 1012.5
20260507093204 2 7 0.0 0.0 0.00 0.00 0.00 94 1012.5
20260507092700 2 7 0.0 0.0 0.00 0.00 0.00 94 1012.6
20260507092151 2 7 0.0 0.0 0.00 0.00 0.00 94 1012.7
20260507091648 2 7 0.0 0.0 0.00 0.00 0.00 94 1012.8
20260507091144 2 7 0.0 0.0 0.00 0.00 0.00 94 1012.6
20260507090640 2 7 0.0 0.0 0.00 0.00 0.00 94 1012.9
20260507090137 2 8 0.0 0.0 0.00 0.00 0.00 94 1012.6
20260507085634 2 7 0.0 0.0 0.00 0.00 0.00 94 1012.7
20260507085131 2 7 0.0 0.0 0.00 0.00 0.00 94 1012.7
20260507084628 2 7 0.0 0.0 0.00 0.00 0.00 93 1012.9
20260507084124 2 7 0.0 0.0 0.00 0.00 0.00 93 1012.8
20260507083621 2 7 0.0 0.0 0.00 0.00 0.00 93 1012.7
20260507083118 3 7 0.0 0.0 0.00 0.00 0.00 93 1012.8
20260507082613 3 6 0.0 0.0 0.00 0.00 0.00 93 1012.9
20260507082110 3 8 0.0 0.0 0.00 0.00 0.00 93 1012.8
20260507081606 3 6 0.0 0.0 0.00 0.00 0.00 92 1012.8
20260507081104 3 6 0.0 0.0 0.00 0.00 0.00 92 1012.8
20260507080600 3 6 0.0 0.0 0.00 0.00 0.00 92 1013.0
20260507080056 3 6 0.0 0.0 0.00 0.00 0.00 92 1012.9
20260507075551 3 6 0.0 0.0 0.00 0.00 0.00 92 1012.8
20260507075048 3 11 0.0 0.0 0.00 0.00 0.00 91 1012.8
20260507074545 3 11 0.0 0.0 0.00 0.00 0.00 91 1012.9
20260507074043 3 11 0.0 0.0 0.00 0.00 0.00 91 1013.2
20260507073539 3 11 0.0 0.0 0.00 0.00 0.00 91 1013.0
20260507073036 3 11 0.0 0.0 0.00 0.00 0.00 90 1013.2
20260507072533 3 11 0.0 0.0 0.00 0.00 0.00 90 1013.3
20260507072030 3 11 0.0 0.0 0.00 0.00 0.00 90 1013.0
20260507071528 4 11 0.0 0.0 0.00 0.00 0.00 89 1012.8
20260507071024 4 11 0.0 0.0 0.00 0.00 0.00 89 1012.8
20260507070521 4 12 0.0 0.0 0.00 0.00 0.00 89 1012.9
20260507070018 4 6 0.0 0.0 0.00 0.00 0.00 88 1012.9
20260507065514 4 5 0.0 0.0 0.00 0.00 0.00 88 1013.0
20260507065012 4 13 0.0 0.0 0.00 0.00 0.00 87 1013.2
20260507064510 4 13 0.0 0.0 0.00 0.00 0.00 87 1013.0
20260507064008 5 13 0.0 0.0 0.00 0.00 0.00 86 1012.9
20260507063505 5 13 0.0 0.0 0.00 0.00 0.00 86 1013.0
20260507063002 5 14 0.0 0.0 0.00 0.00 0.00 85 1013.3
20260507062458 5 14 0.0 0.0 0.00 0.00 0.00 85 1013.5
20260507061956 5 24 1.6 1.6 0.00 0.00 0.00 85 1013.0
20260507061454 5 14 0.0 0.0 0.00 0.00 0.00 84 1013.5
20260507060952 5 14 0.0 0.0 0.00 0.00 0.00 83 1013.5
20260507060449 5 14 0.0 0.0 0.00 0.00 0.00 82 1013.3
20260507055945 5 14 0.0 0.0 0.00 0.00 0.00 81 1013.7
20260507055440 5 14 0.0 0.0 0.00 0.00 0.00 80 1013.5
20260507054937 5 14 0.0 0.0 0.00 0.00 0.00 79 1013.7
20260507054433 5 14 0.0 0.0 0.00 0.00 0.00 79 1013.4
20260507053931 6 14 0.0 0.0 0.00 0.00 0.00 78 1013.7
20260507053428 6 14 0.0 0.0 0.00 0.00 0.00 76 1013.6
20260507052927 6 15 0.0 0.0 0.00 0.00 0.00 75 1013.6
20260507052424 6 15 0.0 0.0 0.00 0.00 0.00 74 1013.6
20260507051921 6 15 0.0 0.0 0.00 0.00 0.00 73 1013.6
20260507051418 7 15 0.0 0.0 0.00 0.00 0.00 72 1013.8
20260507050915 7 15 0.0 0.0 0.00 0.00 0.00 71 1013.7
20260507050411 7 15 0.0 0.0 0.00 0.00 0.00 70 1013.8
20260507045908 7 15 0.0 0.0 0.00 0.00 0.00 69 1013.8
20260507045404 7 15 0.0 0.0 0.00 0.00 0.00 69 1013.8
20260507044857 7 15 0.0 0.0 0.00 0.00 0.00 69 1013.9
20260507044353 7 15 0.0 0.0 0.00 0.00 0.00 70 1014.0
20260507043849 7 11 1.6 1.6 0.00 0.00 0.00 69 1014.0
20260507043346 7 10 0.0 0.0 0.00 0.00 0.00 69 1013.9
20260507042842 7 351 1.6 1.6 0.00 0.00 0.00 69 1014.0
20260507042338 7 355 1.6 3.2 0.00 0.00 0.00 68 1014.0
20260507041835 7 353 1.6 1.6 0.00 0.00 0.00 68 1014.0
20260507041332 7 2 1.6 3.2 0.00 0.00 0.00 68 1014.2
20260507040829 7 356 1.6 1.6 0.00 0.00 0.00 67 1014.1
20260507040325 8 14 0.0 1.6 0.00 0.00 0.00 67 1014.0
20260507035821 8 6 0.0 1.6 0.00 1.60 1.60 67 1014.1
20260507035316 8 359 0.0 0.0 0.00 1.60 1.60 68 1014.2